Terminal Aerodrome Forecast
Issued by NWS

Home | Current Version | Previous Version | Text Only | Print | Product List | Glossary On
Versions: 1 2 3 4 5 6 7 8 9 10 11 12 13 14 15 16
000
FTUS45 KTFX 291131
TAFCTB
TAF
KCTB 291131Z 2912/3012 21010KT 5SM FU BKN035
     FM291600 18018G25KT 5SM FU SCT050 BKN150
     FM292300 24020G30KT P6SM OVC110
     FM300400 27011KT 4SM FU FEW080 SCT150=

USA.gov is the U.S. government's official web portal to all federal, state and local government web resources and services.